Flag for Ecuador Weather past 2 weeks in Quito, Ecuador

Now
54 °F

Partly sunny.


Feels Like: 50 °F
Forecast: 47 / 72 °F
Wind: 13 mph from South

Location: Latacunga Airport

Current Time: Jul 24, 2014 at 8:59:44 AM

Latest Report: Jul 24, 2014 at 8:00 AM


Visibility: N/A

Pressure: 30.45 "Hg

Humidity: 94%

Dew point: 52 °F

Location of QuitoLocation

Historic Weather in Quito — Graph

°F

Quito temperature yesterday

Maximum temperature yesterday: 66 °F (at 4:00 PM)
Minimum temperature yesterday: 41 °F (at 4:00 AM)
Average temperature yesterday: 54 °F

Past Weeks' High & Low Weather Summary

 TemperatureHumidityPressure
High68 °F (Jul 12, 12:00 PM)100% (Jul 9, 11:00 PM)30.54 "Hg (Jul 9, 11:00 PM)
Low41 °F (Jul 22, 6:00 AM)40% (Jul 22, 12:00 PM)30.30 "Hg (Jul 11, 4:00 PM)
Average54 °F83%30.44 "Hg
* Reported Jul 9 8:00 AM — Jul 24 8:00 AM, Quito, Weather by CustomWeather, © 2014

Note: Actual official high and low records may vary slightly from our data, if they occured in-between our weather recording intervals... More about our weather records

Advertising

Quito weather history for previous 24 hours

 ConditionsComfort  
Time TempWeatherWind HumidityBarometerVisibility
8:00 AM
Jul 24
54 °FPartly sunny.13 mph94%30.45 "HgN/A
7:00 AM50 °FPartly sunny.10 mph100%30.42 "HgN/A
6:00 AM50 °FPassing clouds.12 mph100%30.39 "HgN/A
5:00 AM50 °FPassing clouds.9 mph100%30.39 "HgN/A
4:00 AM50 °FPassing clouds.14 mph100%30.36 "HgN/A
2:00 AM52 °FPassing clouds.12 mph94%30.39 "HgN/A
1:00 AM52 °FPassing clouds.9 mph94%30.42 "HgN/A
12:00 AM52 °FPassing clouds.9 mph94%30.45 "HgN/A
11:00 PM
Jul 23
52 °FPassing clouds.12 mph94%30.45 "HgN/A
10:00 PM50 °FPassing clouds.9 mph94%30.42 "HgN/A
9:00 PM50 °FPassing clouds.5 mph94%30.42 "HgN/A
8:00 PM52 °FPassing clouds.12 mph88%30.39 "HgN/A
7:00 PM55 °FPassing clouds.16 mph77%30.39 "HgN/A
6:00 PM59 °FPassing clouds.16 mph68%30.36 "HgN/A
5:00 PM63 °FScattered clouds.18 mph56%30.30 "HgN/A
4:00 PM66 °FScattered clouds.16 mph52%30.30 "HgN/A
3:00 PM64 °FPartly sunny.25 mph52%30.33 "HgN/A
2:00 PM63 °FPartly sunny.20 mph56%30.36 "HgN/A
1:00 PM64 °FPartly sunny.20 mph56%30.39 "HgN/A
12:00 PM63 °FPartly sunny.20 mph56%30.42 "HgN/A
11:00 AM63 °FPartly sunny.20 mph59%30.45 "HgN/A
10:00 AM59 °FPartly sunny.17 mph72%30.45 "HgN/A
9:00 AM55 °FPartly sunny.13 mph82%30.48 "HgN/A
8:00 AM52 °FPartly sunny.10 mph94%30.45 "HgN/A
Weather by CustomWeather, © 2014

See weather overviewHow to use our weather pages